QPF
0.00 0.01 0.01 0.00 0.00 0.00 0.00 0.01 0.01 0.01 0.01 0.01 0.01 0.01 0.01 0.00 0.00 0.00 0.00 0.00 0.00 0.00 0.00 0.00 0.00 0.00 0.00 0.00 0.00 0.00 0.00 0.00 0.01 0.01 0.02 0.02 0.02 0.03
0.01 0.01 0.01 0.00 0.00 0.00 0.00 0.00 0.00 0.00 0.00 0.00 0.00 0.00 0.00 0.00 0.00 0.00 0.00 0.00 0.00 0.00 0.00 0.00 0.00 0.00 0.00 0.00 0.00 0.00 0.00 0.00 0.00 0.00 0.01 0.01 0.01 0.02
0.01 0.01 0.00 0.00 0.00 0.00 0.00 0.00 0.00 0.00 0.00 0.00 0.00 0.00 0.00 0.00 0.00 0.00 0.00 0.00 0.00 0.00 0.00 0.00 0.00 0.00 0.00 0.00 0.00 0.00 0.00 0.00 0.00 0.00 0.00 0.01 0.01 0.01
0.01 0.01 0.01 0.00 0.00 0.00 0.00 0.00 0.00 0.00 0.00 0.00 0.00 0.00 0.00 0.00 0.00 0.00 0.00 0.00 0.00 0.00 0.00 0.00 0.00 0.00 0.00 0.00 0.00 0.00 0.00 0.00 0.00 0.00 0.00 0.00 0.00 0.01
0.01 0.01 0.01 0.01 0.01 0.00 0.00 0.00 0.00 0.00 0.00 0.00 0.00 0.00 0.00 0.00 0.00 0.00 0.00 0.00 0.00 0.00 0.00 0.00 0.00 0.00 0.00 0.00 0.00 0.00 0.00 0.00 0.00 0.00 0.00 0.00 0.00 0.00
0.01 0.01 0.01 0.01 0.01 0.01 0.00 0.00 0.00 0.00 0.01 0.00 0.00 0.00 0.00 0.00 0.01 0.01 0.00 0.00 0.00 0.00 0.00 0.00 0.00 0.00 0.00 0.00 0.00 0.00 0.00 0.00 0.00 0.00 0.00 0.00 0.00 0.00
0.01 0.01 0.01 0.01 0.01 0.01 0.00 0.01 0.01 0.01 0.01 0.01 0.01 0.01 0.02 0.02 0.02 0.02 0.01 0.01 0.00 0.00 0.00 0.00 0.00 0.00 0.00 0.00 0.00 0.00 0.00 0.00 0.00 0.00 0.00 0.00 0.00 0.00
0.02 0.02 0.01 0.00 0.00 0.00 0.00 0.00 0.00 0.01 0.01 0.01 0.01 0.02 0.02 0.02 0.02 0.01 0.01 0.01 0.01 0.00 0.00 0.00 0.00 0.00 0.00 0.00 0.00 0.00 0.00 0.00 0.00 0.00 0.00 0.00 0.00 0.00
0.02 0.02 0.01 0.00 0.00 0.00 0.00 0.00 0.00 0.00 0.00 0.00 0.01 0.02 0.02 0.03 0.02 0.02 0.02 0.02 0.01 0.00 0.01 0.00 0.00 0.00 0.00 0.00 0.00 0.00 0.00 0.00 0.00 0.00 0.00 0.00 0.00 0.00
0.02 0.02 0.02 0.02 0.01 0.02 0.02 0.02 0.02 0.01 0.01 0.01 0.01 0.01 0.02 0.02 0.02 0.02 0.01 0.01 0.00 0.00 0.01 0.01 0.00 0.00 0.00 0.00 0.00 0.00 0.00 0.00 0.00 0.00 0.00 0.00 0.00 0.00
0.02 0.02 0.02 0.02 0.03 0.02 0.01 0.02 0.03 0.02 0.01 0.02 0.01 0.01 0.01 0.00 0.00 0.00 0.00 0.00 0.00 0.00 0.01 0.02 0.01 0.00 0.00 0.00 0.00 0.00 0.00 0.00 0.00 0.00 0.00 0.00 0.00 0.00
0.04 0.04 0.03 0.03 0.03 0.02 0.02 0.03 0.03 0.03 0.03 0.02 0.02 0.01 0.00 0.00 0.00 0.00 0.01 0.01 0.01 0.01 0.00 0.01 0.01 0.01 0.01 0.00 0.00 0.00 0.01 0.01 0.01 0.00 0.00 0.00 0.00 0.00
0.04 0.05 0.04 0.04 0.03 0.02 0.02 0.02 0.02 0.02 0.02 0.02 0.02 0.01 0.01 0.01 0.01 0.01 0.01 0.01 0.02 0.01 0.01 0.02 0.02 0.02 0.02 0.01 0.00 0.00 0.00 0.01 0.01 0.01 0.01 0.01 0.01 0.01
0.05 0.05 0.04 0.04 0.03 0.02 0.01 0.01 0.00 0.00 0.00 0.01 0.01 0.01 0.01 0.01 0.01 0.02 0.04 0.04 0.04 0.03 0.02 0.03 0.04 0.04 0.04 0.02 0.01 0.00 0.00 0.01 0.01 0.01 0.02 0.03 0.03 0.02
0.02 0.02 0.02 0.02 0.01 0.01 0.00 0.00 0.00 0.01 0.01 0.01 0.01 0.01 0.01 0.01 0.01 0.02 0.03 0.04 0.03 0.02 0.02 0.03 0.04 0.05 0.05 0.04 0.02 0.01 0.01 0.01 0.01 0.02 0.02 0.03 0.05 0.05
0.01 0.01 0.01 0.01 0.00 0.00 0.00 0.01 0.01 0.01 0.02 0.01 0.01 0.02 0.02 0.03 0.03 0.03 0.02 0.02 0.02 0.02 0.02 0.03 0.04 0.06 0.05 0.04 0.04 0.03 0.03 0.03 0.02 0.02 0.04 0.04 0.04 0.05
0.03 0.02 0.01 0.01 0.02 0.02 0.03 0.03 0.04 0.04 0.04 0.04 0.04 0.05 0.05 0.04 0.03 0.02 0.02 0.03 0.03 0.02 0.01 0.02 0.03 0.05 0.06 0.07 0.06 0.04 0.04 0.04 0.03 0.04 0.07 0.05 0.03 0.04
0.05 0.03 0.03 0.04 0.05 0.07 0.07 0.08 0.08 0.08 0.08 0.08 0.08 0.07 0.05 0.03 0.02 0.02 0.02 0.03 0.03 0.02 0.02 0.02 0.03 0.04 0.06 0.05 0.06 0.06 0.05 0.04 0.04 0.06 0.07 0.06 0.03 0.03
0.05 0.04 0.05 0.06 0.06 0.07 0.08 0.08 0.09 0.09 0.09 0.08 0.06 0.05 0.04 0.04 0.04 0.04 0.04 0.04 0.03 0.03 0.02 0.02 0.04 0.06 0.06 0.04 0.02 0.03 0.04 0.05 0.04 0.04 0.05 0.06 0.04 0.03
0.04 0.05 0.05 0.06 0.07 0.07 0.07 0.07 0.06 0.05 0.05 0.05 0.05 0.05 0.06 0.05 0.05 0.04 0.04 0.04 0.04 0.04 0.03 0.03 0.04 0.06 0.06 0.04 0.02 0.01 0.01 0.03 0.04 0.03 0.03 0.04 0.03 0.02
0.05 0.06 0.06 0.06 0.06 0.06 0.05 0.05 0.04 0.04 0.04 0.04 0.04 0.03 0.03 0.03 0.03 0.03 0.03 0.03 0.03 0.03 0.03 0.03 0.03 0.03 0.04 0.05 0.03 0.01 0.01 0.01 0.02 0.02 0.03 0.03 0.02 0.02
0.05 0.05 0.05 0.04 0.04 0.04 0.04 0.04 0.03 0.03 0.03 0.02 0.02 0.02 0.02 0.03 0.03 0.03 0.03 0.04 0.04 0.04 0.03 0.02 0.03 0.04 0.06 0.06 0.05 0.03 0.02 0.01 0.02 0.02 0.02 0.02 0.03 0.02
0.05 0.05 0.04 0.04 0.03 0.03 0.04 0.03 0.03 0.04 0.04 0.04 0.04 0.04 0.04 0.04 0.05 0.05 0.04 0.04 0.04 0.04 0.04 0.04 0.04 0.04 0.04 0.05 0.05 0.03 0.02 0.02 0.02 0.03 0.02 0.02 0.02 0.01
MSLP
1016.90 1016.96 1017.09 1017.25 1017.44 1017.61 1017.75 1017.84 1017.88 1017.87 1017.83 1017.79 1017.76 1017.77 1017.82 1017.92 1018.07 1018.25 1018.45 1018.67 1018.90 1019.13 1019.36 1019.57 1019.76 1019.92 1020.05 1020.14 1020.19 1020.19 1020.15 1020.09 1020.00 1019.89 1019.78 1019.66 1019.54 1019.42
1016.90 1016.96 1017.05 1017.18 1017.33 1017.47 1017.59 1017.67 1017.72 1017.73 1017.72 1017.70 1017.69 1017.71 1017.75 1017.81 1017.91 1018.03 1018.18 1018.34 1018.51 1018.69 1018.89 1019.08 1019.27 1019.44 1019.58 1019.69 1019.76 1019.78 1019.77 1019.72 1019.65 1019.56 1019.45 1019.34 1019.22 1019.10
1016.90 1016.96 1017.04 1017.15 1017.27 1017.40 1017.51 1017.60 1017.66 1017.70 1017.73 1017.75 1017.77 1017.79 1017.81 1017.85 1017.89 1017.94 1018.00 1018.08 1018.17 1018.28 1018.41 1018.56 1018.71 1018.86 1019.00 1019.11 1019.19 1019.23 1019.24 1019.21 1019.17 1019.11 1019.04 1018.95 1018.86 1018.75
1016.90 1016.97 1017.06 1017.17 1017.28 1017.40 1017.51 1017.62 1017.71 1017.79 1017.86 1017.91 1017.95 1017.98 1017.99 1017.99 1017.98 1017.95 1017.92 1017.90 1017.90 1017.92 1017.97 1018.04 1018.13 1018.23 1018.33 1018.42 1018.48 1018.53 1018.55 1018.55 1018.54 1018.52 1018.49 1018.45 1018.40 1018.33
1016.89 1016.98 1017.09 1017.20 1017.32 1017.45 1017.57 1017.70 1017.82 1017.93 1018.03 1018.11 1018.18 1018.21 1018.21 1018.17 1018.10 1018.01 1017.89 1017.78 1017.68 1017.60 1017.55 1017.53 1017.54 1017.57 1017.60 1017.64 1017.68 1017.70 1017.72 1017.73 1017.75 1017.77 1017.79 1017.81 1017.82 1017.81
1016.83 1016.96 1017.08 1017.21 1017.34 1017.48 1017.62 1017.76 1017.90 1018.03 1018.15 1018.26 1018.33 1018.36 1018.34 1018.28 1018.17 1018.02 1017.84 1017.65 1017.47 1017.30 1017.16 1017.05 1016.97 1016.91 1016.86 1016.83 1016.81 1016.79 1016.79 1016.80 1016.83 1016.88 1016.95 1017.03 1017.10 1017.16
1016.70 1016.85 1016.99 1017.13 1017.28 1017.42 1017.57 1017.71 1017.86 1018.00 1018.12 1018.23 1018.30 1018.32 1018.30 1018.22 1018.08 1017.90 1017.69 1017.45 1017.22 1016.99 1016.78 1016.59 1016.42 1016.27 1016.14 1016.03 1015.93 1015.85 1015.81 1015.80 1015.82 1015.89 1016.00 1016.12 1016.25 1016.37
1016.46 1016.62 1016.77 1016.92 1017.07 1017.21 1017.35 1017.49 1017.62 1017.75 1017.86 1017.95 1018.01 1018.03 1018.00 1017.92 1017.78 1017.60 1017.38 1017.14 1016.89 1016.64 1016.39 1016.15 1015.92 1015.70 1015.48 1015.29 1015.11 1014.96 1014.85 1014.80 1014.80 1014.86 1014.98 1015.13 1015.30 1015.46
1016.10 1016.26 1016.41 1016.56 1016.70 1016.83 1016.95 1017.06 1017.17 1017.27 1017.36 1017.43 1017.47 1017.48 1017.45 1017.38 1017.26 1017.11 1016.92 1016.71 1016.48 1016.24 1015.99 1015.73 1015.46 1015.19 1014.91 1014.64 1014.38 1014.16 1013.98 1013.87 1013.83 1013.86 1013.96 1014.11 1014.28 1014.47
1015.64 1015.79 1015.93 1016.06 1016.18 1016.28 1016.38 1016.46 1016.54 1016.61 1016.67 1016.71 1016.74 1016.74 1016.72 1016.67 1016.58 1016.47 1016.34 1016.18 1016.00 1015.80 1015.57 1015.32 1015.05 1014.75 1014.43 1014.10 1013.78 1013.49 1013.24 1013.06 1012.95 1012.93 1012.98 1013.09 1013.25 1013.42
1015.11 1015.24 1015.36 1015.47 1015.57 1015.65 1015.72 1015.77 1015.82 1015.86 1015.89 1015.91 1015.92 1015.92 1015.91 1015.88 1015.84 1015.77 1015.69 1015.59 1015.47 1015.32 1015.14 1014.92 1014.66 1014.36 1014.02 1013.66 1013.29 1012.94 1012.63 1012.38 1012.20 1012.10 1012.08 1012.13 1012.23 1012.35
1014.58 1014.69 1014.79 1014.88 1014.95 1015.01 1015.06 1015.09 1015.11 1015.13 1015.14 1015.15 1015.16 1015.15 1015.15 1015.14 1015.12 1015.09 1015.05 1014.99 1014.92 1014.82 1014.68 1014.49 1014.26 1013.97 1013.64 1013.27 1012.88 1012.49 1012.12 1011.81 1011.56 1011.38 1011.28 1011.24 1011.26 1011.30
1014.10 1014.19 1014.27 1014.34 1014.39 1014.43 1014.46 1014.49 1014.50 1014.51 1014.52 1014.52 1014.52 1014.52 1014.51 1014.50 1014.49 1014.47 1014.44 1014.41 1014.35 1014.27 1014.16 1014.00 1013.79 1013.53 1013.21 1012.85 1012.46 1012.06 1011.67 1011.31 1011.00 1010.75 1010.56 1010.43 1010.34 1010.28
1013.70 1013.77 1013.83 1013.88 1013.92 1013.95 1013.98 1014.00 1014.02 1014.04 1014.05 1014.06 1014.05 1014.05 1014.03 1014.00 1013.96 1013.92 1013.87 1013.82 1013.75 1013.66 1013.55 1013.40 1013.21 1012.97 1012.68 1012.35 1011.98 1011.59 1011.20 1010.83 1010.48 1010.17 1009.90 1009.68 1009.50 1009.34
1013.38 1013.43 1013.47 1013.50 1013.53 1013.56 1013.59 1013.62 1013.65 1013.68 1013.70 1013.71 1013.71 1013.69 1013.64 1013.58 1013.50 1013.41 1013.30 1013.19 1013.08 1012.95 1012.81 1012.65 1012.47 1012.25 1012.00 1011.72 1011.39 1011.05 1010.69 1010.32 1009.97 1009.63 1009.31 1009.01 1008.74 1008.48
1013.12 1013.15 1013.17 1013.18 1013.20 1013.22 1013.25 1013.29 1013.33 1013.37 1013.40 1013.41 1013.40 1013.36 1013.28 1013.17 1013.03 1012.87 1012.69 1012.50 1012.32 1012.13 1011.95 1011.77 1011.59 1011.40 1011.19 1010.96 1010.70 1010.42 1010.11 1009.79 1009.45 1009.11 1008.76 1008.41 1008.07 1007.74
1012.90 1012.91 1012.90 1012.89 1012.88 1012.89 1012.91 1012.94 1012.98 1013.02 1013.05 1013.06 1013.04 1012.98 1012.86 1012.70 1012.50 1012.27 1012.01 1011.75 1011.49 1011.24 1011.02 1010.82 1010.63 1010.47 1010.30 1010.13 1009.95 1009.74 1009.50 1009.24 1008.94 1008.61 1008.26 1007.88 1007.50 1007.11
1012.72 1012.69 1012.65 1012.60 1012.56 1012.54 1012.53 1012.55 1012.57 1012.60 1012.62 1012.62 1012.58 1012.49 1012.34 1012.14 1011.89 1011.60 1011.28 1010.96 1010.64 1010.35 1010.10 1009.88 1009.71 1009.56 1009.44 1009.33 1009.22 1009.08 1008.92 1008.71 1008.46 1008.16 1007.81 1007.43 1007.02 1006.58
1012.58 1012.51 1012.43 1012.35 1012.27 1012.20 1012.16 1012.14 1012.13 1012.12 1012.12 1012.09 1012.03 1011.92 1011.75 1011.53 1011.25 1010.93 1010.59 1010.24 1009.90 1009.59 1009.32 1009.10 1008.94 1008.82 1008.73 1008.67 1008.60 1008.52 1008.41 1008.25 1008.03 1007.75 1007.41 1007.02 1006.59 1006.12
1012.52 1012.42 1012.31 1012.18 1012.06 1011.95 1011.86 1011.78 1011.72 1011.68 1011.63 1011.57 1011.48 1011.35 1011.18 1010.95 1010.67 1010.36 1010.03 1009.68 1009.35 1009.06 1008.80 1008.60 1008.44 1008.34 1008.27 1008.22 1008.18 1008.12 1008.02 1007.87 1007.66 1007.38 1007.03 1006.62 1006.15 1005.66
1012.59 1012.48 1012.35 1012.20 1012.03 1011.88 1011.73 1011.59 1011.48 1011.37 1011.28 1011.17 1011.06 1010.91 1010.74 1010.53 1010.28 1010.00 1009.70 1009.40 1009.11 1008.85 1008.62 1008.43 1008.29 1008.18 1008.10 1008.04 1007.97 1007.88 1007.74 1007.56 1007.31 1006.99 1006.61 1006.16 1005.66 1005.13
1012.85 1012.75 1012.61 1012.44 1012.26 1012.06 1011.86 1011.67 1011.49 1011.33 1011.17 1011.03 1010.88 1010.72 1010.55 1010.36 1010.15 1009.92 1009.68 1009.44 1009.20 1008.98 1008.78 1008.61 1008.45 1008.32 1008.20 1008.07 1007.93 1007.76 1007.54 1007.27 1006.94 1006.55 1006.10 1005.59 1005.04 1004.46
1013.32 1013.24 1013.12 1012.96 1012.76 1012.54 1012.31 1012.06 1011.83 1011.60 1011.39 1011.19 1011.00 1010.82 1010.65 1010.48 1010.31 1010.13 1009.95 1009.76 1009.58 1009.39 1009.21 1009.03 1008.85 1008.66 1008.45 1008.23 1007.97 1007.67 1007.33 1006.94 1006.49 1006.00 1005.46 1004.88 1004.27 1003.65
Thickness
5731 5730 5729 5730 5731 5730 5728 5724 5716 5709 5709 5714 5715 5716 5714 5710 5706 5704 5702 5700 5698 5696 5694 5693 5691 5690 5688 5687 5686 5685 5684 5683 5683 5682 5682 5681 5681 5681
5728 5728 5726 5727 5728 5727 5725 5723 5720 5713 5708 5712 5713 5713 5710 5709 5704 5702 5701 5699 5697 5696 5694 5693 5691 5689 5687 5686 5684 5683 5682 5681 5680 5679 5678 5678 5678 5677
5726 5725 5723 5723 5722 5722 5722 5719 5717 5714 5706 5708 5711 5710 5707 5704 5701 5700 5699 5698 5697 5696 5694 5693 5691 5688 5686 5685 5683 5681 5680 5678 5677 5676 5675 5674 5674 5673
5723 5722 5720 5720 5718 5717 5716 5715 5713 5711 5706 5701 5704 5704 5703 5702 5700 5698 5697 5698 5697 5696 5695 5693 5690 5687 5685 5683 5681 5680 5678 5676 5674 5673 5672 5671 5670 5669
5721 5719 5718 5716 5713 5713 5711 5710 5709 5709 5705 5701 5699 5701 5700 5700 5697 5696 5696 5695 5694 5694 5693 5690 5688 5686 5683 5681 5680 5678 5676 5673 5671 5670 5668 5667 5666 5665
5720 5718 5716 5714 5711 5709 5708 5706 5704 5702 5700 5698 5696 5696 5696 5696 5694 5690 5689 5690 5690 5691 5689 5687 5685 5683 5681 5679 5677 5675 5673 5670 5668 5666 5664 5663 5662 5661
5717 5716 5714 5712 5710 5707 5705 5702 5700 5697 5695 5693 5692 5691 5690 5689 5686 5686 5683 5684 5685 5686 5684 5683 5682 5679 5678 5676 5674 5672 5670 5667 5665 5662 5661 5659 5658 5657
5714 5713 5712 5709 5707 5704 5702 5699 5695 5692 5689 5687 5686 5684 5684 5683 5682 5680 5677 5675 5673 5678 5676 5675 5676 5674 5674 5673 5672 5669 5666 5663 5661 5659 5657 5655 5653 5651
5712 5709 5709 5710 5706 5702 5698 5695 5692 5688 5685 5682 5679 5678 5678 5678 5675 5672 5670 5667 5666 5669 5667 5666 5668 5667 5668 5668 5666 5664 5661 5659 5656 5654 5652 5649 5647 5646
5709 5707 5705 5704 5703 5699 5696 5692 5689 5687 5684 5679 5678 5677 5675 5673 5669 5667 5664 5663 5663 5663 5661 5657 5660 5659 5661 5660 5658 5657 5655 5652 5650 5648 5646 5643 5641 5639
5706 5705 5703 5701 5698 5695 5691 5688 5686 5684 5683 5680 5677 5674 5670 5667 5663 5659 5656 5653 5652 5655 5655 5651 5651 5651 5652 5651 5651 5649 5647 5645 5643 5640 5638 5636 5634 5631
5702 5702 5700 5697 5695 5691 5687 5684 5680 5678 5677 5675 5672 5669 5666 5662 5659 5654 5650 5646 5644 5644 5647 5643 5641 5640 5639 5642 5641 5639 5637 5636 5634 5632 5630 5628 5625 5621
5699 5698 5697 5693 5689 5686 5683 5680 5676 5673 5670 5668 5666 5664 5662 5659 5656 5652 5648 5642 5637 5635 5637 5634 5630 5628 5624 5627 5629 5628 5627 5625 5624 5622 5621 5619 5617 5613
5695 5694 5692 5689 5684 5680 5676 5673 5669 5665 5662 5660 5658 5657 5655 5653 5651 5648 5644 5640 5636 5632 5630 5625 5620 5616 5613 5613 5614 5616 5615 5614 5613 5612 5611 5611 5610 5607
5689 5686 5683 5681 5676 5672 5668 5665 5660 5657 5654 5651 5649 5648 5647 5645 5643 5640 5637 5633 5629 5626 5623 5618 5613 5609 5605 5602 5602 5603 5602 5602 5602 5601 5601 5600 5600 5598
5680 5678 5674 5671 5667 5664 5662 5657 5653 5650 5647 5644 5642 5641 5638 5635 5632 5629 5625 5622 5618 5616 5614 5610 5606 5601 5596 5594 5591 5590 5589 5589 5590 5590 5590 5590 5590 5589
5675 5670 5667 5664 5660 5657 5655 5652 5648 5644 5639 5636 5632 5629 5627 5624 5620 5617 5613 5609 5605 5602 5601 5599 5596 5592 5588 5584 5582 5581 5580 5579 5579 5579 5578 5579 5580 5580
5667 5664 5661 5657 5654 5651 5647 5644 5640 5636 5632 5627 5623 5619 5616 5612 5608 5605 5601 5597 5593 5591 5588 5586 5583 5581 5579 5578 5574 5572 5571 5570 5570 5569 5567 5567 5570 5571
5659 5656 5653 5649 5646 5643 5639 5635 5630 5627 5622 5618 5614 5609 5605 5601 5596 5593 5589 5585 5581 5579 5577 5574 5571 5566 5564 5565 5568 5563 5559 5559 5559 5559 5559 5558 5559 5562
5650 5647 5643 5639 5635 5631 5627 5623 5619 5615 5611 5607 5602 5598 5593 5588 5584 5580 5576 5572 5569 5567 5565 5563 5559 5555 5551 5551 5554 5555 5552 5550 5549 5549 5550 5551 5552 5554
5640 5635 5631 5627 5624 5620 5616 5611 5607 5602 5598 5594 5589 5585 5580 5575 5572 5568 5564 5561 5557 5554 5552 5551 5549 5546 5543 5542 5543 5546 5546 5543 5540 5538 5539 5540 5542 5544
5628 5623 5619 5615 5612 5608 5603 5598 5594 5589 5585 5580 5576 5571 5567 5562 5558 5555 5552 5549 5546 5543 5541 5539 5538 5535 5533 5531 5533 5535 5537 5537 5535 5533 5532 5531 5530 5533
5614 5610 5606 5602 5598 5593 5589 5585 5581 5576 5571 5566 5562 5557 5552 5548 5545 5542 5540 5537 5534 5531 5529 5528 5526 5524 5524 5523 5523 5525 5526 5526 5526 5527 5529 5529 5528 5529